| time (UTC) | temp F | wind direction | speed knots | gust knots | rain 1hr in | rain 24hr in | rain mn in | humidity % | barometer mb |
| 20260906234856 | 63 | 275 | 0.0 | 0.0 | 0.00 | 0.01 | 0.01 | 78 | 1016.7 |
| 20260906234355 | 63 | 282 | 0.0 | 0.0 | 0.00 | 0.01 | 0.01 | 78 | 1016.9 |
| 20260906233850 | 63 | 272 | 0.0 | 0.0 | 0.00 | 0.01 | 0.01 | 78 | 1016.8 |
| 20260906233349 | 63 | 282 | 0.9 | 0.9 | 0.00 | 0.01 | 0.01 | 79 | 1016.7 |
| 20260906232843 | 64 | 353 | 1.7 | 1.7 | 0.00 | 0.01 | 0.01 | 77 | 1016.7 |
| 20260906232338 | 64 | 269 | 0.9 | 1.7 | 0.00 | 0.01 | 0.01 | 77 | 1016.8 |
| 20260906231832 | 64 | 289 | 0.9 | 0.9 | 0.00 | 0.01 | 0.01 | 77 | 1016.7 |
| 20260906231328 | 64 | 284 | 0.0 | 0.0 | 0.00 | 0.01 | 0.01 | 79 | 1016.9 |
| 20260906230827 | 64 | 316 | 2.6 | 4.3 | 0.00 | 0.01 | 0.01 | 78 | 1016.9 |
| 20260906230323 | 64 | 263 | 0.0 | 0.0 | 0.00 | 0.01 | 0.01 | 79 | 1017.1 |
| 20260906225820 | 64 | 280 | 0.0 | 0.9 | 0.00 | 0.01 | 0.01 | 80 | 1017.2 |
| 20260906225316 | 63 | 295 | 1.7 | 1.7 | 0.00 | 0.01 | 0.01 | 80 | 1017.2 |
| 20260906224812 | 63 | 349 | 3.5 | 5.2 | 0.00 | 0.01 | 0.01 | 80 | 1017.1 |
| 20260906224308 | 63 | 337 | 1.7 | 2.6 | 0.00 | 0.01 | 0.01 | 81 | 1017.1 |
| 20260906223804 | 64 | 313 | 0.9 | 1.7 | 0.00 | 0.01 | 0.01 | 80 | 1017.1 |
| 20260906223300 | 64 | 335 | 0.0 | 0.9 | 0.00 | 0.01 | 0.01 | 79 | 1017.3 |
| 20260906222758 | 64 | 222 | 0.0 | 0.0 | 0.00 | 0.01 | 0.01 | 78 | 1017.4 |
| 20260906222257 | 64 | 160 | 0.9 | 0.9 | 0.00 | 0.01 | 0.01 | 78 | 1017.5 |
| 20260906221755 | 64 | 243 | 0.0 | 0.0 | 0.00 | 0.01 | 0.01 | 80 | 1017.4 |
| 20260906221249 | 64 | 254 | 1.7 | 2.6 | 0.00 | 0.01 | 0.01 | 78 | 1017.5 |
| 20260906220745 | 64 | 224 | 0.0 | 0.0 | 0.00 | 0.01 | 0.01 | 81 | 1017.5 |
| 20260906220240 | 64 | 282 | 1.7 | 1.7 | 0.00 | 0.01 | 0.01 | 80 | 1017.5 |
| 20260906215739 | 64 | 267 | 0.9 | 0.9 | 0.00 | 0.01 | 0.01 | 80 | 1017.5 |
| 20260906215233 | 64 | 233 | 2.6 | 2.6 | 0.00 | 0.01 | 0.01 | 79 | 1017.5 |
| 20260906214731 | 64 | 220 | 0.9 | 1.7 | 0.00 | 0.01 | 0.01 | 79 | 1017.5 |
| 20260906214226 | 64 | 193 | 0.9 | 0.9 | 0.00 | 0.01 | 0.01 | 80 | 1017.8 |
| 20260906213720 | 63 | 216 | 0.9 | 0.9 | 0.00 | 0.01 | 0.01 | 82 | 1017.4 |
| 20260906213220 | 63 | 256 | 0.0 | 0.9 | 0.00 | 0.01 | 0.01 | 81 | 1017.4 |
| 20260906212716 | 63 | 237 | 1.7 | 1.7 | 0.00 | 0.01 | 0.01 | 80 | 1017.4 |
| 20260906212213 | 63 | 224 | 0.0 | 0.0 | 0.00 | 0.01 | 0.01 | 82 | 1017.5 |
| 20260906211707 | 63 | 231 | 0.0 | 0.0 | 0.00 | 0.01 | 0.01 | 81 | 1017.5 |
| 20260906211203 | 63 | 273 | 0.9 | 0.9 | 0.00 | 0.01 | 0.01 | 81 | 1017.7 |
| 20260906210658 | 63 | 251 | 0.0 | 0.9 | 0.00 | 0.01 | 0.01 | 82 | 1017.5 |
| 20260906210157 | 63 | 238 | 0.0 | 0.0 | 0.00 | 0.01 | 0.01 | 81 | 1017.7 |
| 20260906205652 | 63 | 282 | 0.9 | 0.9 | 0.00 | 0.01 | 0.01 | 80 | 1017.5 |
| 20260906205148 | 63 | 272 | 0.9 | 0.9 | 0.00 | 0.01 | 0.01 | 79 | 1017.5 |
| 20260906204643 | 63 | 259 | 0.0 | 0.0 | 0.00 | 0.01 | 0.01 | 80 | 1017.5 |
| 20260906204138 | 63 | 12 | 2.6 | 4.3 | 0.00 | 0.01 | 0.01 | 79 | 1017.5 |
| 20260906203637 | 63 | 260 | 0.0 | 0.0 | 0.00 | 0.01 | 0.01 | 80 | 1017.6 |
| 20260906203132 | 63 | 265 | 0.0 | 0.9 | 0.00 | 0.01 | 0.01 | 79 | 1017.5 |
| 20260906202629 | 63 | 292 | 0.0 | 0.0 | 0.00 | 0.01 | 0.01 | 80 | 1017.5 |
| 20260906202128 | 62 | 240 | 0.0 | 0.0 | 0.00 | 0.01 | 0.01 | 80 | 1017.5 |
| 20260906201624 | 63 | 275 | 2.6 | 2.6 | 0.00 | 0.01 | 0.01 | 80 | 1017.6 |
| 20260906201122 | 62 | 19 | 0.9 | 0.9 | 0.00 | 0.01 | 0.01 | 79 | 1017.6 |
| 20260906200619 | 62 | 56 | 1.7 | 1.7 | 0.00 | 0.01 | 0.01 | 79 | 1017.7 |
| 20260906200115 | 63 | 66 | 1.7 | 1.7 | 0.00 | 0.01 | 0.01 | 78 | 1017.7 |
| 20260906195610 | 62 | 143 | 0.9 | 1.7 | 0.00 | 0.01 | 0.01 | 78 | 1017.7 |
| 20260906195106 | 62 | 133 | 0.9 | 1.7 | 0.00 | 0.01 | 0.01 | 78 | 1017.8 |
| 20260906194602 | 62 | 102 | 2.6 | 2.6 | 0.00 | 0.01 | 0.01 | 79 | 1017.8 |
| 20260906194057 | 62 | 127 | 0.9 | 1.7 | 0.00 | 0.01 | 0.01 | 79 | 1017.7 |
| 20260906193557 | 62 | 82 | 2.6 | 2.6 | 0.00 | 0.01 | 0.01 | 77 | 1017.7 |
| 20260906193052 | 62 | 117 | 3.5 | 4.3 | 0.00 | 0.01 | 0.01 | 79 | 1017.9 |
| 20260906192548 | 62 | 88 | 1.7 | 1.7 | 0.00 | 0.01 | 0.01 | 78 | 1017.8 |
| 20260906192047 | 62 | 103 | 1.7 | 1.7 | 0.00 | 0.01 | 0.01 | 79 | 1018.0 |
| 20260906191542 | 62 | 75 | 2.6 | 2.6 | 0.00 | 0.01 | 0.01 | 79 | 1018.2 |
| 20260906191041 | 62 | 67 | 1.7 | 2.6 | 0.00 | 0.01 | 0.01 | 80 | 1018.2 |
| 20260906190540 | 61 | 77 | 3.5 | 5.2 | 0.00 | 0.01 | 0.01 | 80 | 1018.3 |
| 20260906190036 | 61 | 31 | 2.6 | 2.6 | 0.00 | 0.01 | 0.01 | 79 | 1018.4 |
| 20260906185534 | 61 | 69 | 3.5 | 4.3 | 0.00 | 0.01 | 0.01 | 80 | 1018.4 |
| 20260906185034 | 62 | 49 | 3.5 | 4.3 | 0.00 | 0.01 | 0.01 | 81 | 1018.4 |
| 20260906184529 | 62 | 96 | 3.5 | 4.3 | 0.00 | 0.01 | 0.01 | 81 | 1018.5 |
| 20260906184024 | 62 | 52 | 4.3 | 6.1 | 0.00 | 0.01 | 0.01 | 82 | 1018.4 |
| 20260906183521 | 61 | 90 | 4.3 | 6.1 | 0.00 | 0.01 | 0.01 | 81 | 1018.3 |
| 20260906183016 | 61 | 85 | 7.0 | 7.8 | 0.00 | 0.01 | 0.01 | 82 | 1018.0 |
| 20260906182511 | 61 | 69 | 4.3 | 6.1 | 0.00 | 0.01 | 0.01 | 84 | 1018.3 |
| 20260906182007 | 61 | 83 | 4.3 | 5.2 | 0.00 | 0.01 | 0.01 | 84 | 1018.3 |
| 20260906181502 | 60 | 52 | 7.8 | 8.7 | 0.00 | 0.01 | 0.01 | 85 | 1018.2 |
| 20260906180958 | 60 | 124 | 7.0 | 8.7 | 0.00 | 0.01 | 0.01 | 87 | 1018.4 |
| 20260906180452 | 60 | 59 | 7.8 | 11.3 | 0.00 | 0.01 | 0.01 | 88 | 1018.4 |
| 20260906175951 | 60 | 57 | 8.7 | 9.6 | 0.00 | 0.01 | 0.01 | 87 | 1018.5 |
| 20260906175445 | 60 | 70 | 3.5 | 5.2 | 0.00 | 0.01 | 0.01 | 88 | 1018.6 |
| 20260906174943 | 59 | 19 | 5.2 | 7.0 | 0.00 | 0.01 | 0.01 | 88 | 1018.6 |
| 20260906174437 | 58 | 45 | 4.3 | 5.2 | 0.00 | 0.01 | 0.01 | 88 | 1018.9 |
| 20260906173933 | 58 | 16 | 2.6 | 4.3 | 0.00 | 0.01 | 0.01 | 88 | 1019.0 |
| 20260906173428 | 58 | 1 | 4.3 | 5.2 | 0.00 | 0.01 | 0.01 | 88 | 1019.1 |
| 20260906172927 | 58 | 30 | 4.3 | 5.2 | 0.00 | 0.01 | 0.01 | 89 | 1018.9 |
| 20260906172424 | 57 | 355 | 3.5 | 5.2 | 0.00 | 0.01 | 0.01 | 89 | 1018.8 |
| 20260906171919 | 57 | 17 | 7.0 | 8.7 | 0.00 | 0.01 | 0.01 | 89 | 1018.9 |
| 20260906171413 | 57 | 28 | 9.6 | 12.2 | 0.00 | 0.01 | 0.01 | 89 | 1018.6 |
| 20260906170909 | 57 | 18 | 9.6 | 13.0 | 0.00 | 0.01 | 0.01 | 89 | 1018.8 |
| 20260906170405 | 56 | 26 | 7.8 | 11.3 | 0.00 | 0.01 | 0.01 | 90 | 1018.5 |
| 20260906165901 | 55 | 25 | 7.8 | 9.6 | 0.00 | 0.01 | 0.01 | 91 | 1019.0 |
| 20260906165401 | 55 | 99 | 0.0 | 0.9 | 0.00 | 0.01 | 0.01 | 92 | 1019.8 |
| 20260906164856 | 55 | 263 | 0.0 | 0.9 | 0.00 | 0.01 | 0.01 | 92 | 1019.8 |
| 20260906164354 | 55 | 152 | 0.0 | 0.9 | 0.00 | 0.01 | 0.01 | 92 | 1020.0 |
| 20260906163851 | 55 | 259 | 0.0 | 0.9 | 0.00 | 0.01 | 0.01 | 92 | 1020.2 |
| 20260906163347 | 55 | 279 | 0.0 | 0.9 | 0.00 | 0.01 | 0.01 | 93 | 1020.1 |
| 20260906162845 | 55 | 249 | 0.0 | 0.0 | 0.00 | 0.01 | 0.01 | 93 | 1020.1 |
| 20260906162343 | 55 | 282 | 1.7 | 2.6 | 0.00 | 0.01 | 0.01 | 93 | 1020.0 |
| 20260906161839 | 55 | 330 | 1.7 | 2.6 | 0.00 | 0.01 | 0.01 | 93 | 1020.1 |
| 20260906161338 | 55 | 313 | 0.9 | 1.7 | 0.00 | 0.01 | 0.01 | 93 | 1020.1 |
| 20260906160837 | 55 | 95 | 0.9 | 0.9 | 0.00 | 0.01 | 0.01 | 93 | 1020.2 |
| 20260906160331 | 55 | 302 | 1.7 | 1.7 | 0.00 | 0.01 | 0.01 | 92 | 1020.0 |
| 20260906155829 | 54 | 266 | 0.0 | 0.9 | 0.00 | 0.01 | 0.01 | 92 | 1020.1 |
| 20260906155323 | 54 | 261 | 0.0 | 0.0 | 0.00 | 0.01 | 0.01 | 92 | 1020.1 |
| 20260906154820 | 54 | 158 | 0.0 | 0.0 | 0.00 | 0.01 | 0.01 | 92 | 1020.1 |
| 20260906154314 | 54 | 233 | 0.0 | 0.0 | 0.00 | 0.01 | 0.01 | 92 | 1020.2 |
| 20260906153812 | 54 | 218 | 0.9 | 1.7 | 0.00 | 0.01 | 0.01 | 92 | 1020.4 |
| 20260906153307 | 54 | 334 | 0.9 | 0.9 | 0.00 | 0.01 | 0.01 | 92 | 1020.3 |
| 20260906152802 | 54 | 308 | 0.0 | 0.0 | 0.00 | 0.01 | 0.01 | 92 | 1020.4 |
| 20260906152257 | 54 | 336 | 0.0 | 0.9 | 0.00 | 0.01 | 0.01 | 92 | 1020.4 |
| 20260906151756 | 54 | 317 | 0.9 | 0.9 | 0.00 | 0.01 | 0.01 | 92 | 1020.7 |
| 20260906151252 | 54 | 359 | 0.9 | 2.6 | 0.07 | 0.01 | 0.01 | 92 | 1020.6 |
| 20260906150747 | 54 | 353 | 4.3 | 7.0 | 0.07 | 0.01 | 0.01 | 91 | 1020.7 |
| 20260906150243 | 54 | 302 | 1.7 | 2.6 | 0.00 | 0.00 | 0.00 | 91 | 1020.3 |
| 20260906145742 | 54 | 160 | 0.9 | 0.9 | 0.00 | 0.00 | 0.00 | 91 | 1020.6 |
| 20260906145240 | 54 | 307 | 0.0 | 0.9 | 0.00 | 0.00 | 0.00 | 91 | 1020.7 |
| 20260906144736 | 54 | 283 | 0.9 | 1.7 | 0.00 | 0.00 | 0.00 | 91 | 1020.9 |
| 20260906144230 | 54 | 15 | 0.9 | 2.6 | 0.00 | 0.00 | 0.00 | 91 | 1020.8 |
| 20260906143730 | 54 | 349 | 0.9 | 0.9 | 0.00 | 0.00 | 0.00 | 91 | 1020.8 |
| 20260906143227 | 54 | 282 | 3.5 | 4.3 | 0.00 | 0.00 | 0.00 | 92 | 1020.6 |
| 20260906142726 | 54 | 18 | 1.7 | 1.7 | 0.00 | 0.00 | 0.00 | 92 | 1020.8 |
| 20260906142222 | 54 | 328 | 2.6 | 5.2 | 0.00 | 0.00 | 0.00 | 91 | 1020.7 |
| 20260906141721 | 55 | 126 | 0.9 | 1.7 | 0.00 | 0.00 | 0.00 | 91 | 1020.9 |
| 20260906141216 | 55 | 172 | 0.9 | 1.7 | 0.00 | 0.00 | 0.00 | 91 | 1020.6 |
| 20260906140715 | 55 | 337 | 1.7 | 1.7 | 0.00 | 0.00 | 0.00 | 90 | 1020.7 |
| 20260906140210 | 56 | 117 | 1.7 | 1.7 | 0.00 | 0.00 | 0.00 | 90 | 1020.7 |
| 20260906135707 | 57 | 45 | 1.7 | 1.7 | 0.00 | 0.00 | 0.00 | 89 | 1020.8 |
| 20260906135203 | 57 | 210 | 0.0 | 0.9 | 0.00 | 0.00 | 0.00 | 89 | 1020.6 |
| 20260906134658 | 57 | 261 | 0.0 | 0.0 | 0.00 | 0.00 | 0.00 | 88 | 1020.6 |
| 20260906134153 | 57 | 246 | 0.0 | 0.0 | 0.00 | 0.00 | 0.00 | 87 | 1020.4 |
| 20260906133649 | 57 | 243 | 0.0 | 0.0 | 0.00 | 0.00 | 0.00 | 87 | 1020.3 |
| 20260906133144 | 57 | 244 | 0.0 | 0.0 | 0.00 | 0.00 | 0.00 | 87 | 1020.4 |
| 20260906132639 | 57 | 294 | 0.9 | 0.9 | 0.00 | 0.00 | 0.00 | 86 | 1020.1 |
| 20260906132135 | 57 | 252 | 0.0 | 0.0 | 0.00 | 0.00 | 0.00 | 86 | 1020.2 |
| 20260906131630 | 57 | 246 | 0.0 | 0.0 | 0.00 | 0.00 | 0.00 | 86 | 1020.2 |
| 20260906131125 | 57 | 243 | 0.0 | 0.9 | 0.00 | 0.00 | 0.00 | 86 | 1020.1 |
| 20260906130620 | 57 | 187 | 0.0 | 0.0 | 0.00 | 0.00 | 0.00 | 86 | 1020.0 |
| 20260906130115 | 57 | 315 | 2.6 | 2.6 | 0.00 | 0.00 | 0.00 | 86 | 1020.1 |
| 20260906125607 | 57 | 282 | 0.0 | 0.0 | 0.00 | 0.00 | 0.00 | 86 | 1020.1 |
| 20260906125106 | 57 | 342 | 0.0 | 0.0 | 0.00 | 0.00 | 0.00 | 87 | 1020.2 |
| 20260906124602 | 57 | 278 | 0.0 | 0.9 | 0.00 | 0.00 | 0.00 | 87 | 1020.2 |
| 20260906124057 | 57 | 284 | 0.9 | 1.7 | 0.00 | 0.00 | 0.00 | 87 | 1020.4 |
| 20260906123556 | 57 | 320 | 0.9 | 0.9 | 0.00 | 0.00 | 0.00 | 87 | 1020.4 |
| 20260906123051 | 57 | 19 | 1.7 | 1.7 | 0.00 | 0.00 | 0.00 | 87 | 1020.4 |
| 20260906122550 | 57 | 278 | 0.9 | 0.9 | 0.00 | 0.00 | 0.00 | 86 | 1020.6 |
| 20260906122047 | 58 | 322 | 1.7 | 2.6 | 0.00 | 0.00 | 0.00 | 86 | 1020.6 |
| 20260906121542 | 58 | 167 | 0.9 | 1.7 | 0.00 | 0.00 | 0.00 | 85 | 1020.2 |
| 20260906121039 | 59 | 350 | 4.3 | 7.0 | 0.00 | 0.00 | 0.00 | 85 | 1020.1 |
| 20260906120533 | 59 | 335 | 6.1 | 7.8 | 0.00 | 0.00 | 0.00 | 84 | 1020.1 |
| 20260906120031 | 59 | 19 | 7.0 | 8.7 | 0.00 | 0.00 | 0.00 | 83 | 1019.9 |
| 20260906115525 | 59 | 46 | 6.1 | 7.0 | 0.00 | 0.00 | 0.00 | 84 | 1019.6 |
| 20260906115020 | 59 | 30 | 9.6 | 12.2 | 0.00 | 0.00 | 0.00 | 83 | 1019.8 |
| 20260906114514 | 59 | 49 | 8.7 | 12.2 | 0.00 | 0.00 | 0.00 | 84 | 1019.7 |
| 20260906114010 | 59 | 17 | 4.3 | 5.2 | 0.00 | 0.00 | 0.00 | 83 | 1019.9 |
| 20260906113509 | 59 | 22 | 7.0 | 8.7 | 0.00 | 0.00 | 0.00 | 84 | 1019.9 |
| 20260906113004 | 59 | 65 | 7.0 | 8.7 | 0.00 | 0.00 | 0.00 | 84 | 1019.8 |
| 20260906112458 | 59 | 28 | 6.1 | 7.8 | 0.00 | 0.00 | 0.00 | 83 | 1019.9 |
| 20260906111955 | 59 | 21 | 7.8 | 9.6 | 0.00 | 0.00 | 0.00 | 83 | 1020.1 |
| 20260906111449 | 59 | 32 | 6.1 | 7.8 | 0.00 | 0.00 | 0.00 | 83 | 1020.1 |
| 20260906110944 | 59 | 8 | 7.8 | 11.3 | 0.00 | 0.00 | 0.00 | 82 | 1020.1 |
| 20260906110439 | 59 | 16 | 5.2 | 6.1 | 0.00 | 0.00 | 0.00 | 82 | 1020.1 |
| 20260906105938 | 59 | 25 | 6.1 | 7.8 | 0.00 | 0.00 | 0.00 | 82 | 1020.2 |
| 20260906105434 | 59 | 320 | 2.6 | 4.3 | 0.00 | 0.00 | 0.00 | 83 | 1020.6 |
| 20260906104930 | 59 | 341 | 1.7 | 1.7 | 0.00 | 0.00 | 0.00 | 84 | 1020.3 |
| 20260906104428 | 59 | 328 | 0.9 | 1.7 | 0.00 | 0.00 | 0.00 | 83 | 1020.4 |
| 20260906103928 | 59 | 33 | 3.5 | 5.2 | 0.00 | 0.00 | 0.00 | 82 | 1020.6 |
| 20260906103426 | 59 | 50 | 7.8 | 12.2 | 0.00 | 0.00 | 0.00 | 81 | 1020.3 |
| 20260906102921 | 58 | 33 | 7.0 | 7.8 | 0.00 | 0.00 | 0.00 | 84 | 1020.4 |
| 20260906102421 | 58 | 1 | 2.6 | 2.6 | 0.00 | 0.00 | 0.00 | 86 | 1020.4 |
| 20260906101916 | 58 | 356 | 2.6 | 2.6 | 0.00 | 0.00 | 0.00 | 86 | 1020.6 |
| 20260906101411 | 58 | 20 | 4.3 | 5.2 | 0.00 | 0.00 | 0.00 | 86 | 1020.6 |
| 20260906100907 | 58 | 325 | 3.5 | 5.2 | 0.00 | 0.00 | 0.00 | 86 | 1020.6 |
| 20260906100406 | 58 | 10 | 6.1 | 7.0 | 0.00 | 0.00 | 0.00 | 85 | 1020.3 |
| 20260906095900 | 58 | 2 | 5.2 | 7.0 | 0.00 | 0.00 | 0.00 | 85 | 1020.3 |
| 20260906095356 | 58 | 10 | 2.6 | 2.6 | 0.00 | 0.00 | 0.00 | 85 | 1020.2 |
| 20260906094850 | 58 | 38 | 2.6 | 4.3 | 0.00 | 0.00 | 0.00 | 85 | 1020.3 |
| 20260906094345 | 58 | 318 | 2.6 | 2.6 | 0.00 | 0.00 | 0.00 | 85 | 1020.4 |
| 20260906093841 | 58 | 334 | 3.5 | 5.2 | 0.00 | 0.00 | 0.00 | 85 | 1020.6 |
| 20260906093337 | 58 | 8 | 2.6 | 4.3 | 0.00 | 0.00 | 0.00 | 86 | 1020.6 |
| 20260906092832 | 57 | 19 | 4.3 | 6.1 | 0.00 | 0.00 | 0.00 | 86 | 1020.2 |
| 20260906092331 | 57 | 18 | 2.6 | 5.2 | 0.00 | 0.00 | 0.00 | 87 | 1020.1 |
| 20260906091827 | 57 | 350 | 4.3 | 7.0 | 0.00 | 0.00 | 0.00 | 87 | 1020.1 |
| 20260906091323 | 57 | 19 | 4.3 | 5.2 | 0.00 | 0.00 | 0.00 | 87 | 1020.1 |
| 20260906090820 | 57 | 25 | 5.2 | 7.0 | 0.00 | 0.00 | 0.00 | 86 | 1020.2 |
| 20260906090318 | 57 | 4 | 7.8 | 8.7 | 0.00 | 0.00 | 0.00 | 87 | 1020.3 |
| 20260906085818 | 57 | 1 | 6.1 | 7.0 | 0.00 | 0.00 | 0.00 | 87 | 1020.3 |
| 20260906085311 | 57 | 348 | 4.3 | 5.2 | 0.00 | 0.00 | 0.00 | 87 | 1020.3 |
| 20260906084807 | 57 | 16 | 5.2 | 7.8 | 0.00 | 0.00 | 0.00 | 86 | 1020.3 |
| 20260906084306 | 57 | 355 | 5.2 | 6.1 | 0.00 | 0.00 | 0.00 | 87 | 1020.2 |
| 20260906083801 | 57 | 358 | 6.1 | 8.7 | 0.00 | 0.00 | 0.00 | 88 | 1020.6 |
| 20260906083257 | 57 | 337 | 2.6 | 4.3 | 0.00 | 0.00 | 0.00 | 88 | 1020.8 |
| 20260906082751 | 57 | 311 | 1.7 | 2.6 | 0.00 | 0.00 | 0.00 | 87 | 1020.8 |
| 20260906082246 | 57 | 32 | 5.2 | 8.7 | 0.00 | 0.00 | 0.00 | 86 | 1021.0 |
| 20260906081742 | 57 | 288 | 0.9 | 0.9 | 0.00 | 0.00 | 0.00 | 88 | 1021.3 |
| 20260906081237 | 57 | 32 | 1.7 | 1.7 | 0.00 | 0.00 | 0.00 | 89 | 1021.3 |
| 20260906080734 | 57 | 236 | 0.9 | 0.9 | 0.00 | 0.00 | 0.00 | 89 | 1021.5 |
| 20260906080230 | 57 | 265 | 0.0 | 0.0 | 0.00 | 0.00 | 0.00 | 89 | 1021.4 |
| 20260906075723 | 57 | 235 | 0.9 | 0.9 | 0.00 | 0.00 | 0.00 | 89 | 1021.5 |
| 20260906075218 | 57 | 304 | 0.9 | 1.7 | 0.00 | 0.00 | 0.00 | 89 | 1021.5 |
| 20260906074713 | 57 | 284 | 0.0 | 0.9 | 0.00 | 0.00 | 0.00 | 89 | 1021.5 |
| 20260906074212 | 57 | 295 | 0.9 | 0.9 | 0.00 | 0.00 | 0.00 | 88 | 1021.8 |
| 20260906073707 | 57 | 194 | 1.7 | 1.7 | 0.00 | 0.00 | 0.00 | 88 | 1021.7 |
| 20260906073203 | 57 | 296 | 0.9 | 1.7 | 0.00 | 0.00 | 0.00 | 87 | 1021.5 |
| 20260906072658 | 57 | 185 | 0.0 | 0.0 | 0.00 | 0.00 | 0.00 | 87 | 1021.5 |
| 20260906072154 | 57 | 217 | 0.9 | 0.9 | 0.00 | 0.00 | 0.00 | 86 | 1021.5 |
| 20260906071650 | 57 | 288 | 1.7 | 2.6 | 0.00 | 0.00 | 0.00 | 85 | 1021.4 |
| 20260906071149 | 57 | 341 | 2.6 | 4.3 | 0.00 | 0.00 | 0.00 | 85 | 1021.3 |
| 20260906070646 | 58 | 27 | 3.5 | 4.3 | 0.00 | 0.00 | 0.00 | 85 | 1021.7 |
| 20260906070141 | 57 | 355 | 2.6 | 5.2 | 0.00 | 0.00 | 0.00 | 84 | 1021.4 |
| 20260906065641 | 57 | 32 | 2.6 | 2.6 | 0.00 | 0.00 | 0.00 | 85 | 1021.5 |
| 20260906065136 | 57 | 3 | 2.6 | 4.3 | 0.00 | 0.00 | 0.00 | 85 | 1021.7 |
| 20260906064632 | 57 | 264 | 0.0 | 0.0 | 0.00 | 0.00 | 0.00 | 85 | 1021.7 |
| 20260906064127 | 57 | 9 | 1.7 | 2.6 | 0.00 | 0.00 | 0.00 | 85 | 1021.5 |
| 20260906063622 | 57 | 343 | 0.9 | 1.7 | 0.00 | 0.00 | 0.00 | 85 | 1021.8 |
| 20260906063118 | 57 | 341 | 1.7 | 1.7 | 0.00 | 0.00 | 0.00 | 85 | 1022.1 |
| 20260906062613 | 57 | 292 | 0.9 | 1.7 | 0.00 | 0.00 | 0.00 | 85 | 1022.0 |
| 20260906062112 | 57 | 267 | 0.0 | 0.9 | 0.00 | 0.00 | 0.00 | 86 | 1022.0 |
| 20260906061609 | 57 | 265 | 0.0 | 0.9 | 0.00 | 0.00 | 0.00 | 86 | 1022.0 |
| 20260906061108 | 58 | 11 | 6.1 | 7.8 | 0.00 | 0.00 | 0.00 | 85 | 1022.1 |
| 20260906060605 | 57 | 0 | 0.9 | 1.7 | 0.00 | 0.00 | 0.00 | 84 | 1021.8 |
| 20260906055557 | 58 | 8 | 6.1 | 9.6 | 0.00 | 0.31 | 0.31 | 82 | 1021.8 |
| 20260906055053 | 57 | 344 | 1.7 | 2.6 | 0.00 | 0.31 | 0.31 | 85 | 1021.8 |
| 20260906054553 | 57 | 261 | 1.7 | 2.6 | 0.00 | 0.31 | 0.31 | 87 | 1022.0 |
| 20260906054048 | 57 | 303 | 0.9 | 1.7 | 0.00 | 0.31 | 0.31 | 88 | 1022.2 |
| 20260906053544 | 57 | 347 | 1.7 | 4.3 | 0.00 | 0.31 | 0.31 | 89 | 1022.4 |
| 20260906053039 | 57 | 270 | 1.7 | 1.7 | 0.00 | 0.31 | 0.31 | 89 | 1022.4 |
| 20260906052535 | 56 | 294 | 0.0 | 0.9 | 0.00 | 0.31 | 0.31 | 89 | 1022.1 |
| 20260906052032 | 56 | 337 | 1.7 | 2.6 | 0.00 | 0.31 | 0.31 | 89 | 1021.8 |
| 20260906051527 | 56 | 247 | 0.0 | 0.0 | 0.00 | 0.31 | 0.31 | 89 | 1021.5 |
| 20260906051023 | 56 | 284 | 0.0 | 0.9 | 0.00 | 0.31 | 0.31 | 90 | 1021.4 |
| 20260906050518 | 56 | 325 | 1.7 | 2.6 | 0.00 | 0.31 | 0.31 | 91 | 1021.2 |
| 20260906050012 | 56 | 283 | 0.0 | 0.0 | 0.00 | 0.31 | 0.31 | 90 | 1021.4 |
| 20260906045510 | 56 | 3 | 0.9 | 1.7 | 0.00 | 0.31 | 0.31 | 90 | 1021.5 |
| 20260906045007 | 56 | 280 | 0.0 | 0.0 | 0.00 | 0.31 | 0.31 | 90 | 1021.3 |
| 20260906044502 | 56 | 334 | 1.7 | 1.7 | 0.00 | 0.31 | 0.31 | 91 | 1021.4 |
| 20260906043957 | 56 | 257 | 0.0 | 0.9 | 0.00 | 0.31 | 0.31 | 91 | 1021.4 |
| 20260906043453 | 57 | 264 | 0.0 | 0.0 | 0.05 | 0.31 | 0.31 | 90 | 1021.7 |
| 20260906042949 | 57 | 255 | 0.0 | 0.0 | 0.05 | 0.31 | 0.31 | 89 | 1021.7 |
| 20260906042448 | 57 | 267 | 0.0 | 0.0 | 0.00 | 0.30 | 0.30 | 89 | 1021.7 |
| 20260906041948 | 57 | 305 | 0.0 | 0.9 | 0.00 | 0.30 | 0.30 | 88 | 1021.2 |
| 20260906041444 | 57 | 296 | 0.0 | 0.0 | 0.00 | 0.30 | 0.30 | 88 | 1021.5 |
| 20260906040943 | 57 | 280 | 0.9 | 0.9 | 0.00 | 0.30 | 0.30 | 87 | 1021.4 |
| 20260906040438 | 57 | 348 | 4.3 | 6.1 | 0.00 | 0.30 | 0.30 | 87 | 1020.7 |
| 20260906035934 | 57 | 25 | 4.3 | 6.1 | 0.00 | 0.30 | 0.30 | 88 | 1020.6 |
| 20260906035429 | 57 | 14 | 5.2 | 7.0 | 0.00 | 0.30 | 0.30 | 88 | 1020.6 |
| 20260906034924 | 57 | 2 | 4.3 | 6.1 | 0.00 | 0.30 | 0.30 | 89 | 1020.3 |
| 20260906034419 | 57 | 0 | 3.5 | 4.3 | 0.00 | 0.30 | 0.30 | 88 | 1020.1 |
| 20260906033915 | 57 | 13 | 5.2 | 6.1 | 0.00 | 0.30 | 0.30 | 88 | 1020.4 |
| 20260906033415 | 57 | 2 | 6.1 | 8.7 | 0.00 | 0.30 | 0.30 | 89 | 1020.3 |
| 20260906032910 | 57 | 13 | 5.2 | 6.1 | 0.00 | 0.30 | 0.30 | 89 | 1020.6 |
| 20260906032407 | 57 | 22 | 5.2 | 6.1 | 0.00 | 0.30 | 0.30 | 89 | 1020.4 |
| 20260906031901 | 58 | 7 | 2.6 | 2.6 | 0.00 | 0.30 | 0.30 | 89 | 1020.6 |
| 20260906031356 | 58 | 12 | 5.2 | 7.0 | 0.00 | 0.30 | 0.30 | 88 | 1020.9 |
| 20260906030851 | 58 | 19 | 3.5 | 4.3 | 0.07 | 0.30 | 0.30 | 89 | 1020.8 |
| 20260906030346 | 58 | 5 | 2.6 | 2.6 | 0.61 | 0.30 | 0.30 | 87 | 1020.9 |
| 20260906025841 | 59 | 352 | 1.7 | 1.7 | 1.18 | 0.29 | 0.29 | 84 | 1020.9 |
| 20260906025335 | 62 | 22 | 6.1 | 7.8 | 0.64 | 0.20 | 0.20 | 77 | 1020.7 |
| 20260906024834 | 63 | 245 | 0.9 | 0.9 | 0.00 | 0.09 | 0.09 | 69 | 1022.0 |
| 20260906024333 | 62 | 231 | 2.6 | 4.3 | 0.00 | 0.09 | 0.09 | 70 | 1021.8 |
| 20260906023829 | 62 | 265 | 0.9 | 0.9 | 0.00 | 0.09 | 0.09 | 69 | 1020.4 |
| 20260906023325 | 62 | 353 | 1.7 | 2.6 | 0.00 | 0.09 | 0.09 | 68 | 1019.6 |
| 20260906022820 | 62 | 0 | 4.3 | 5.2 | 0.00 | 0.09 | 0.09 | 68 | 1019.1 |
| 20260906022315 | 62 | 357 | 4.3 | 5.2 | 0.00 | 0.09 | 0.09 | 68 | 1018.8 |
| 20260906021811 | 63 | 359 | 3.5 | 4.3 | 0.00 | 0.09 | 0.09 | 68 | 1019.1 |
| 20260906021310 | 62 | 12 | 5.2 | 6.1 | 0.00 | 0.09 | 0.09 | 68 | 1018.9 |
| 20260906020804 | 62 | 351 | 4.3 | 6.1 | 0.00 | 0.09 | 0.09 | 69 | 1019.0 |
| 20260906020259 | 62 | 11 | 2.6 | 2.6 | 0.00 | 0.09 | 0.09 | 69 | 1019.1 |
| 20260906015759 | 62 | 7 | 5.2 | 6.1 | 0.00 | 0.09 | 0.09 | 68 | 1019.1 |
| 20260906015257 | 63 | 9 | 4.3 | 6.1 | 0.00 | 0.09 | 0.09 | 68 | 1019.2 |
| 20260906014752 | 63 | 8 | 3.5 | 4.3 | 0.00 | 0.09 | 0.09 | 67 | 1019.1 |
| 20260906014248 | 64 | 13 | 4.3 | 5.2 | 0.00 | 0.09 | 0.09 | 66 | 1019.2 |
| 20260906013743 | 64 | 12 | 3.5 | 4.3 | 0.00 | 0.09 | 0.09 | 64 | 1019.1 |
| 20260906013243 | 64 | 9 | 6.1 | 7.8 | 0.00 | 0.09 | 0.09 | 64 | 1018.9 |
| 20260906012739 | 64 | 14 | 6.1 | 7.8 | 0.00 | 0.09 | 0.09 | 64 | 1019.4 |
| 20260906012234 | 64 | 4 | 2.6 | 2.6 | 0.00 | 0.09 | 0.09 | 63 | 1019.2 |
| 20260906011729 | 65 | 5 | 4.3 | 5.2 | 0.00 | 0.09 | 0.09 | 62 | 1019.5 |
| 20260906011228 | 65 | 21 | 3.5 | 4.3 | 0.00 | 0.09 | 0.09 | 61 | 1019.2 |
| 20260906010724 | 66 | 358 | 5.2 | 6.1 | 0.00 | 0.09 | 0.09 | 61 | 1019.1 |
| 20260906010221 | 66 | 348 | 3.5 | 4.3 | 0.00 | 0.09 | 0.09 | 60 | 1019.4 |
| 20260906005721 | 67 | 9 | 4.3 | 5.2 | 0.00 | 0.09 | 0.09 | 59 | 1019.1 |
| 20260906005214 | 67 | 350 | 7.0 | 7.8 | 0.00 | 0.09 | 0.09 | 58 | 1019.1 |
| 20260906004713 | 67 | 2 | 6.1 | 7.0 | 0.00 | 0.09 | 0.09 | 58 | 1019.4 |
| 20260906004209 | 67 | 15 | 4.3 | 4.3 | 0.00 | 0.09 | 0.09 | 57 | 1019.2 |
| 20260906003704 | 67 | 19 | 8.7 | 9.6 | 0.00 | 0.09 | 0.09 | 57 | 1019.1 |
| 20260906003200 | 67 | 16 | 4.3 | 6.1 | 0.00 | 0.09 | 0.09 | 57 | 1019.0 |
| 20260906002659 | 68 | 11 | 6.1 | 7.8 | 0.00 | 0.09 | 0.09 | 56 | 1019.0 |
| 20260906002154 | 68 | 4 | 3.5 | 5.2 | 0.00 | 0.09 | 0.09 | 56 | 1019.4 |
| 20260906001650 | 69 | 27 | 0.9 | 2.6 | 0.00 | 0.09 | 0.09 | 56 | 1019.2 |
| 20260906001149 | 70 | 348 | 0.9 | 1.7 | 0.00 | 0.09 | 0.09 | 54 | 1019.4 |
| 20260906000645 | 71 | 8 | 2.6 | 4.3 | 0.00 | 0.09 | 0.09 | 52 | 1019.5 |
| 20260906000140 | 73 | 274 | 0.9 | 1.7 | 0.00 | 0.09 | 0.09 | 52 | 1019.4 |
| 20260905235639 | 72 | 15 | 7.0 | 9.6 | 0.00 | 0.09 | 0.09 | 51 | 1019.4 |
| 20260905235135 | 71 | 15 | 7.0 | 7.8 | 0.00 | 0.09 | 0.09 | 50 | 1019.4 |